Lafayette, IN

10:55 AM EST on January 16, 2018 (GMT -0500)
Purdue Univ

Weather History for KLAF - May, 2013

Change the Weather History Date:

Thursday, May 2, 2013

  Actual Average Record
Temperature  
Mean Temperature 65 °F 57 °F  
Max Temperature 80 °F 69 °F 84 °F (1968)
Min Temperature 50 °F 46 °F 30 °F (1966)
Degree Days  
Heating Degree Days 0 8  
Month to date heating degree days 0 17  
Since 1 July heating degree days 5757 5507  
Cooling Degree Days 0 1  
Month to date cooling degree days 2 2  
Year to date cooling degree days 5 15  
Growing Degree Days 19 (Base 50)    
Moisture  
Dew Point 54 °F    
Average Humidity 66    
Maximum Humidity 90    
Minimum Humidity 42    
Precipitation  
Precipitation 0.00 in 0.12 in 1.08 in (1954)
Month to date precipitation 0.00 0.25  
Year to date precipitation 15.55 10.08  
Sea Level Pressure  
Sea Level Pressure 30.09 in    
Wind  
Wind Speed 7 mph (ESE)    
Max Wind Speed 17 mph    
Max Gust Speed 23 mph    
Visibility 10 miles    
Events      
T = Trace of Precipitation, MM = Missing Value Source: NWS Daily Summary

Daily Weather History Graph

Daily Weather History Graph

Search for Another Location

Airport or City:

Trip Planner

Search our weather history database for the weather conditions in past years. The results will help you decide how hot, cold, wet, or windy it might be!

Date:

Astronomy

May. 02, 2013 Rise Set
Actual Time 6:45 AM EDT 8:44 PM EDT
Civil Twilight 6:15 AM EDT 9:14 PM EDT
Nautical Twilight 5:39 AM EDT 9:50 PM EDT
Astronomical Twilight 5:00 AM EDT 10:30 PM EDT
Moon 2:33 AM EDT (5/2) 1:32 PM EDT (5/2)
Length of Visible Light 14h 58m
Length of Day
13h 59m
Waning Gibbous, 48% of the Moon is Illuminated
May 2
Waning Gibbous
May 9
New
May 18
First Quarter
May 25
Full
May 31
Last Quarter

Hourly Weather History & Observations

Time (EDT) Temp. Dew Point Humidity Pressure Visibility Wind Dir Wind Speed Gust Speed Precip Events Conditions
12:54 AM 61.0 °F 57.0 °F 87% 30.13 in 10.0 mi ENE 3.5 mph - N/A   Clear
1:54 AM 61.0 °F 55.0 °F 81% 30.12 in 10.0 mi East 3.5 mph - N/A   Clear
2:54 AM 59.0 °F 55.0 °F 87% 30.12 in 10.0 mi Calm Calm - N/A   Clear
3:54 AM 59.0 °F 55.0 °F 87% 30.11 in 10.0 mi Calm Calm - N/A   Clear
4:54 AM 59.0 °F 54.0 °F 83% 30.10 in 10.0 mi East 5.8 mph - N/A   Clear
5:54 AM 60.1 °F 54.0 °F 80% 30.11 in 10.0 mi East 6.9 mph - N/A   Clear
6:54 AM 61.0 °F 53.1 °F 75% 30.11 in 10.0 mi ESE 4.6 mph - N/A   Clear
7:54 AM 61.0 °F 55.0 °F 81% 30.13 in 10.0 mi East 4.6 mph - N/A   Clear
8:54 AM 66.0 °F 55.9 °F 70% 30.14 in 10.0 mi SE 5.8 mph - N/A   Scattered Clouds
9:54 AM 68.0 °F 55.9 °F 65% 30.15 in 10.0 mi South 10.4 mph - N/A   Partly Cloudy
10:54 AM 71.1 °F 57.0 °F 61% 30.14 in 10.0 mi SSE 8.1 mph - N/A   Scattered Clouds
11:54 AM 73.9 °F 55.0 °F 52% 30.14 in 10.0 mi South 9.2 mph - N/A   Clear
12:22 PM 75.2 °F 55.4 °F 50% 30.14 in 10.0 mi South 10.4 mph - N/A   Clear
12:54 PM 75.9 °F 57.0 °F 52% 30.12 in 10.0 mi SSE 10.4 mph - N/A   Scattered Clouds
1:54 PM 78.1 °F 55.9 °F 46% 30.10 in 10.0 mi SE 8.1 mph - N/A   Clear
2:54 PM 79.0 °F 53.1 °F 40% 30.08 in 10.0 mi South 8.1 mph 17.3 mph N/A   Mostly Cloudy
3:54 PM 78.1 °F 53.1 °F 42% 30.06 in 10.0 mi SE 12.7 mph - N/A   Clear
4:54 PM 77.0 °F 55.0 °F 47% 30.05 in 10.0 mi SE 13.8 mph 21.9 mph N/A   Overcast
5:54 PM 75.0 °F 53.1 °F 46% 30.03 in 10.0 mi ESE 12.7 mph - N/A   Mostly Cloudy
6:54 PM 75.0 °F 53.1 °F 46% 30.03 in 10.0 mi SE 11.5 mph 17.3 mph N/A   Partly Cloudy
7:54 PM 71.1 °F 52.0 °F 51% 30.03 in 10.0 mi SE 6.9 mph - N/A   Clear
8:54 PM 66.9 °F 52.0 °F 59% 30.04 in 10.0 mi ESE 6.9 mph - N/A   Clear
9:54 PM 64.9 °F 52.0 °F 63% 30.05 in 10.0 mi East 4.6 mph - N/A   Clear
10:54 PM 59.0 °F 48.0 °F 67% 30.06 in 10.0 mi North 9.2 mph - N/A   Overcast
11:54 PM 53.1 °F 46.0 °F 77% 30.06 in 10.0 mi NNE 4.6 mph - N/A   Partly Cloudy